EW7003 Weather Reports


time (UTC)temp
C
wind
direction
speed
KPH
gust
KPH
rain 1hr
cm
rain 24hr
cm
rain mn
cm
humidity
%
barometer
mb
20260507144212 12 263 20.9 29.0 0.00 0.91 0.00 56 1013.9
20260507143713 12 265 19.3 25.7 0.00 0.91 0.00 57 1013.9
20260507143230 11 263 20.9 25.7 0.00 0.91 0.00 56 1013.9
20260507142727 11 265 20.9 27.4 0.00 0.91 0.00 56 1013.9
20260507142223 11 265 20.9 25.7 0.00 0.91 0.00 56 1013.9
20260507141720 11 264 19.3 27.4 0.00 0.97 0.00 57 1013.9
20260507141237 10 263 22.5 27.4 0.00 0.97 0.00 55 1013.9
20260507140713 10 265 17.7 25.7 0.00 0.97 0.00 58 1013.8
20260507140214 10 265 20.9 25.7 0.00 0.97 0.00 59 1013.8
20260507135711 9 264 20.9 25.7 0.00 0.97 0.00 62 1013.8
20260507135228 8 279 17.7 22.5 0.00 0.97 0.00 65 1013.7
20260507134725 8 270 17.7 22.5 0.00 0.97 0.00 67 1013.7
20260507134241 7 273 17.7 22.5 0.00 0.97 0.00 68 1013.7
20260507133716 7 266 16.1 22.5 0.00 0.97 0.00 69 1013.7
20260507133213 6 258 17.7 24.1 0.00 0.97 0.00 70 1013.7
20260507132730 6 262 17.7 24.1 0.00 0.97 0.00 71 1013.7
20260507132247 6 272 17.7 22.5 0.00 0.97 0.00 71 1013.6
20260507131747 5 263 19.3 22.5 0.00 0.97 0.00 71 1013.6
20260507131223 5 269 17.7 22.5 0.00 0.97 0.00 73 1013.5
20260507130720 5 276 16.1 20.9 0.00 0.97 0.00 74 1013.5
20260507130216 4 261 17.7 20.9 0.00 0.97 0.00 75 1013.4
20260507125713 3 260 16.1 19.3 0.00 0.97 0.00 76 1013.4
20260507125229 3 261 16.1 22.5 0.00 0.97 0.00 76 1013.3
20260507124726 3 259 16.1 22.5 0.00 0.97 0.00 77 1013.3
20260507124226 2 245 17.7 22.5 0.00 0.97 0.00 77 1013.2
20260507123722 2 252 17.7 20.9 0.00 0.97 0.00 78 1013.2
20260507123219 2 254 17.7 22.5 0.00 0.97 0.00 79 1013.2
20260507122716 2 249 19.3 22.5 0.00 0.97 0.00 80 1013.2
20260507122212 1 257 17.7 22.5 0.00 0.97 0.00 80 1013.0
20260507121729 1 243 17.7 25.7 0.00 0.97 0.00 81 1012.9
20260507121225 1 248 19.3 24.1 0.00 0.97 0.00 81 1012.9
20260507120723 1 248 16.1 17.7 0.00 0.97 0.00 82 1012.8
20260507120223 1 235 12.9 17.7 0.00 0.97 0.00 81 1012.8
20260507115740 1 216 12.9 19.3 0.00 0.97 0.00 82 1012.8
20260507115236 1 253 12.9 22.5 0.00 0.97 0.00 82 1012.8
20260507114711 1 248 16.1 24.1 0.00 0.97 0.00 81 1012.8
20260507114229 1 255 17.7 22.5 0.00 0.97 0.00 81 1012.8
20260507113746 1 245 16.1 20.9 0.00 0.97 0.00 81 1012.9
20260507113221 1 251 16.1 22.5 0.00 0.97 0.00 81 1012.9
20260507112717 1 254 17.7 22.5 0.00 0.97 0.00 81 1012.9
20260507112234 1 249 19.3 24.1 0.00 0.97 0.00 81 1013.0
20260507111750 1 256 19.3 24.1 0.00 0.97 0.00 81 1013.0
20260507111230 1 240 19.3 24.1 0.00 0.97 0.00 82 1013.1
20260507110727 1 251 19.3 24.1 0.00 0.97 0.00 82 1013.2
20260507110224 1 254 17.7 24.1 0.00 0.97 0.00 83 1013.2
20260507105720 1 250 19.3 24.1 0.00 0.97 0.00 83 1013.4
20260507105218 1 245 19.3 22.5 0.00 0.97 0.00 84 1013.4
20260507104735 1 250 19.3 22.5 0.00 0.97 0.00 84 1013.5
20260507104229 1 252 17.7 22.5 0.00 0.97 0.00 84 1013.5
20260507103711 1 255 16.1 22.5 0.00 0.97 0.00 83 1013.6
20260507103226 1 256 17.7 22.5 0.00 0.97 0.00 83 1013.7
20260507102744 1 253 16.1 24.1 0.00 0.97 0.00 83 1013.5
20260507102240 1 244 17.7 24.1 0.00 0.97 0.00 83 1013.6
20260507101736 1 249 19.3 25.7 0.00 0.97 0.00 83 1013.7
20260507101211 1 250 19.3 25.7 0.00 0.97 0.00 83 1013.6
20260507100728 1 243 17.7 24.1 0.00 0.97 0.00 83 1013.7
20260507100225 1 240 16.1 24.1 0.00 0.97 0.00 83 1013.7
20260507095742 1 251 16.1 24.1 0.00 0.97 0.00 83 1013.7
20260507095218 1 252 16.1 24.1 0.00 0.97 0.00 84 1013.7
20260507094718 1 258 16.1 24.1 0.00 0.97 0.00 84 1013.8
20260507094215 1 254 14.5 24.1 0.00 0.97 0.00 84 1013.8
20260507093732 1 244 14.5 24.1 0.00 0.97 0.00 85 1013.9
20260507093248 1 256 17.7 25.7 0.00 0.97 0.00 85 1013.9
20260507092724 1 254 17.7 24.1 0.00 0.97 0.00 85 1013.9
20260507092241 1 248 16.1 22.5 0.00 0.97 0.00 85 1013.9
20260507091717 1 234 12.9 22.5 0.00 0.97 0.97 86 1013.9
20260507091214 1 246 14.5 22.5 0.00 0.97 0.97 86 1013.9
20260507090751 1 261 12.9 17.7 0.00 0.97 0.97 86 1014.0
20260507090246 1 222 12.9 17.7 0.00 0.97 0.97 86 1014.1
20260507085726 1 244 12.9 22.5 0.00 0.97 0.97 87 1014.1
20260507085223 1 217 14.5 22.5 0.00 0.97 0.97 87 1014.1
20260507084739 1 209 12.9 19.3 0.00 0.97 0.97 87 1014.2
20260507084215 1 237 14.5 20.9 0.00 0.97 0.97 87 1014.2
20260507083712 1 242 16.1 25.7 0.00 0.97 0.97 87 1014.3
20260507083229 1 229 16.1 25.7 0.00 0.97 0.97 87 1014.4
20260507082724 1 238 17.7 24.1 0.00 0.97 0.97 87 1014.3
20260507082224 1 216 16.1 24.1 0.00 0.97 0.97 87 1014.3
20260507081742 1 234 16.1 27.4 0.00 0.97 0.97 87 1014.3
20260507081218 1 247 17.7 25.7 0.00 0.97 0.97 86 1014.4
20260507080715 2 222 14.5 22.5 0.00 0.97 0.97 86 1014.4
20260507080211 2 236 16.1 25.7 0.00 0.97 0.97 86 1014.5
20260507075728 2 240 16.1 24.1 0.00 0.97 0.97 86 1014.6
20260507075224 2 221 12.9 22.5 0.00 0.97 0.97 86 1014.6
20260507074720 2 235 16.1 22.5 0.00 0.97 0.97 85 1014.8
20260507074222 2 248 14.5 25.7 0.00 0.97 0.97 85 1014.9
20260507073719 2 255 16.1 29.0 0.00 0.97 0.97 85 1014.9
20260507073236 2 196 16.1 27.4 0.00 0.97 0.97 85 1015.1
20260507072712 2 242 16.1 27.4 0.00 0.97 0.97 85 1015.1
20260507072228 2 219 17.7 25.7 0.00 0.97 0.97 85 1015.1
20260507071725 2 225 19.3 25.7 0.00 0.97 0.97 85 1015.2
20260507071221 2 256 16.1 27.4 0.00 0.97 0.97 85 1015.2
20260507070722 2 236 17.7 27.4 0.00 0.97 0.97 85 1015.4
20260507070219 2 257 17.7 29.0 0.00 0.97 0.97 86 1015.4
20260507065737 2 250 17.7 29.0 0.00 0.97 0.97 86 1015.4
20260507065212 2 239 19.3 29.0 0.00 0.97 0.97 86 1015.4
20260507064729 2 275 19.3 29.0 0.00 0.97 0.97 87 1015.3
20260507064227 2 246 20.9 29.0 0.00 0.97 0.97 87 1015.3
20260507063724 2 229 17.7 29.0 0.00 0.97 0.97 87 1015.4
20260507063241 2 254 16.1 25.7 0.00 0.97 0.97 88 1015.4
20260507062720 2 227 17.7 24.1 0.00 0.97 0.97 88 1015.5
20260507062217 2 256 16.1 25.7 0.00 0.97 0.97 88 1015.5
20260507061714 2 250 16.1 25.7 0.00 0.97 0.97 88 1015.5
20260507061211 1 267 12.9 25.7 0.00 0.97 0.97 88 1015.5
20260507060727 1 219 16.1 25.7 0.00 0.97 0.97 88 1015.6
20260507060224 1 244 14.5 24.1 0.00 0.97 0.97 87 1015.7
20260507055722 1 205 12.9 24.1 0.00 0.97 0.97 87 1015.7
20260507055222 1 231 16.1 24.1 0.00 0.97 0.97 88 1015.7
20260507054719 1 225 12.9 24.1 0.00 0.97 0.97 88 1015.8
20260507054217 1 215 12.9 19.3 0.00 0.97 0.97 88 1015.9
20260507053712 1 224 11.3 19.3 0.00 0.97 0.97 88 1016.0
20260507053229 1 244 11.3 17.7 0.00 0.97 0.97 88 1016.0
20260507052726 1 238 11.3 17.7 0.00 0.97 0.97 88 1016.1
20260507052223 0 231 8.0 14.5 0.00 0.97 0.97 88 1016.2
20260507051725 0 232 9.7 17.7 0.00 0.97 0.97 88 1016.2
20260507051221 0 242 9.7 17.7 0.00 0.97 0.97 88 1016.2
20260507050718 0 215 9.7 14.5 0.00 0.97 0.97 88 1016.2
20260507050214 0 236 8.0 14.5 0.00 0.97 0.97 88 1016.3
20260507045751 0 245 8.0 14.5 0.00 0.97 0.97 88 1016.4
20260507045246 0 250 9.7 14.5 0.00 0.97 0.97 88 1016.5
20260507044722 0 255 9.7 14.5 0.00 0.97 0.97 88 1016.5
20260507044217 0 257 8.0 14.5 0.00 0.97 0.97 87 1016.5
20260507043714 0 250 6.4 14.5 0.00 0.97 0.97 86 1016.5
20260507043214 0 257 8.0 12.9 0.00 0.97 0.97 87 1016.5
20260507042731 1 242 8.0 12.9 0.00 0.97 0.97 87 1016.6
20260507042242 1 224 8.0 14.5 0.00 0.97 0.97 87 1016.7
20260507041740 1 254 8.0 16.1 0.00 0.97 0.97 87 1016.7
20260507041216 1 257 12.9 16.1 0.00 0.97 0.97 87 1016.7
20260507040731 1 239 9.7 17.7 0.00 0.97 0.97 87 1016.8
20260507040228 1 252 11.3 17.7 0.00 0.97 0.97 87 1016.8
20260507035725 1 250 11.3 16.1 0.00 0.97 0.97 86 1016.9
20260507035221 1 252 9.7 16.1 0.00 0.97 0.97 86 1016.9
20260507034722 1 250 8.0 19.3 0.00 0.97 0.97 86 1016.9
20260507034219 1 236 11.3 19.3 0.00 0.97 0.97 86 1016.9
20260507033737 1 258 8.0 14.5 0.00 0.97 0.97 85 1016.9
20260507033212 1 238 9.7 12.9 0.00 0.97 0.97 85 1017.0
20260507032749 1 249 8.0 16.1 0.00 0.97 0.97 85 1016.9
20260507032225 1 237 8.0 12.9 0.00 0.97 0.97 85 1016.9
20260507031722 1 252 8.0 12.9 0.00 0.97 0.97 85 1016.8
20260507031219 1 249 8.0 14.5 0.00 0.97 0.97 85 1016.7
20260507030719 2 252 9.7 14.5 0.00 0.97 0.97 84 1016.7
20260507030217 2 234 8.0 14.5 0.00 0.97 0.97 84 1016.6
20260507025714 2 229 6.4 11.3 0.00 0.97 0.97 83 1016.6
20260507025230 2 239 6.4 12.9 0.00 0.97 0.97 83 1016.7
20260507024746 2 234 6.4 12.9 0.00 0.97 0.97 83 1016.5
20260507024222 2 246 6.4 14.5 0.00 0.97 0.97 82 1016.5
20260507023739 2 225 6.4 14.5 0.00 0.97 0.97 82 1016.5
20260507023213 2 216 8.0 12.9 0.00 0.97 0.97 81 1016.6
20260507022714 3 240 9.7 12.9 0.00 0.97 0.97 81 1016.6
20260507022211 3 225 8.0 12.9 0.00 0.97 0.97 81 1016.7
20260507021728 3 258 6.4 9.7 0.00 0.97 0.97 80 1016.8
20260507021225 3 227 6.4 12.9 0.00 0.97 0.97 80 1016.7
20260507020743 3 244 6.4 11.3 0.00 0.97 0.97 80 1016.6
20260507020219 4 232 6.4 11.3 0.00 0.97 0.97 79 1016.6
20260507015714 4 240 6.4 11.3 0.00 0.97 0.97 79 1016.6
20260507015211 5 229 8.0 12.9 0.00 0.97 0.97 78 1016.6
20260507014712 5 227 6.4 12.9 0.00 0.97 0.97 78 1016.5
20260507014228 5 254 8.0 12.9 0.00 0.97 0.97 78 1016.5
20260507013745 5 246 6.4 11.3 0.00 0.97 0.97 77 1016.5
20260507013221 5 229 6.4 11.3 0.00 0.97 0.97 77 1016.5
20260507012718 5 221 6.4 12.9 0.00 0.97 0.97 77 1016.5
20260507012214 5 247 6.4 12.9 0.00 0.97 0.97 77 1016.5
20260507011711 5 231 8.0 11.3 0.00 1.07 0.97 76 1016.6
20260507011212 6 244 6.4 12.9 0.00 1.07 0.97 75 1016.5
20260507010750 6 229 6.4 12.9 0.00 1.07 0.97 74 1016.5
20260507010245 6 229 8.0 17.7 0.00 1.07 0.97 73 1016.5
20260507005721 6 250 11.3 17.7 0.00 1.07 0.97 73 1016.7
20260507005218 7 240 6.4 11.3 0.00 1.07 0.97 74 1016.6
20260507004714 7 249 6.4 14.5 0.00 1.07 0.97 74 1016.6
20260507004211 7 213 6.4 14.5 0.00 1.07 0.97 74 1016.5
20260507003728 7 230 8.0 12.9 0.00 1.07 0.97 74 1016.5
20260507003225 7 221 9.7 14.5 0.00 1.07 0.97 73 1016.4
20260507002725 7 273 9.7 14.5 0.00 1.07 0.97 74 1016.5
20260507002222 6 268 11.3 16.1 0.00 1.07 0.97 75 1016.5
20260507001718 6 256 11.3 14.5 0.00 1.14 0.97 77 1016.5
20260507001214 6 256 4.8 9.7 0.00 1.14 0.97 77 1016.5
20260507000711 6 229 4.8 9.7 0.00 1.14 0.97 76 1016.5
20260507000228 7 234 6.4 11.3 0.00 1.14 0.97 76 1016.5
20260506235744 7 259 6.4 14.5 0.00 1.14 0.97 74 1016.5
20260506235224 7 270 8.0 14.5 0.00 1.14 0.97 76 1016.6
20260506234721 6 239 4.8 12.9 0.00 1.14 0.97 77 1016.6
20260506234218 6 263 8.0 12.9 0.00 1.14 0.97 79 1016.6
20260506233715 6 242 4.8 11.3 0.00 1.14 0.97 80 1016.7
20260506233212 6 232 4.8 11.3 0.00 1.14 0.97 81 1016.8
20260506232729 6 252 3.2 11.3 0.00 1.14 0.97 83 1016.8
20260506232226 5 257 1.6 6.4 0.00 1.14 0.97 82 1016.8
20260506231743 5 179 0.0 4.8 0.00 1.24 0.97 83 1016.8
20260506231243 5 117 1.6 4.8 0.00 1.24 0.97 84 1016.8
20260506230739 5 114 0.0 4.8 0.00 1.24 0.97 85 1016.8
20260506230235 5 132 1.6 3.2 0.00 1.24 0.97 87 1016.8
20260506225711 4 57 0.0 0.0 0.00 1.24 0.97 85 1016.8
20260506225248 4 57 0.0 0.0 0.00 1.24 0.97 85 1016.8
20260506224724 4 57 0.0 1.6 0.00 1.24 0.97 85 1016.8
20260506224221 4 57 0.0 3.2 0.00 1.24 0.97 85 1016.8
20260506223718 4 57 1.6 3.2 0.00 1.24 0.97 85 1016.7
20260506223215 4 57 1.6 4.8 0.00 1.24 0.97 85 1016.8
20260506222737 4 57 3.2 8.0 0.00 1.24 0.97 86 1016.8
20260506222232 4 61 6.4 8.0 0.00 1.24 0.97 86 1016.8
20260506221728 5 360 6.4 9.7 0.00 1.37 0.97 85 1016.8
20260506221225 5 76 8.0 9.7 0.00 1.37 0.97 84 1016.8
20260506220722 5 72 8.0 9.7 0.00 1.37 0.97 83 1016.8
20260506220219 5 327 1.6 8.0 0.00 1.37 0.97 86 1017.0
20260506215736 5 220 1.6 8.0 0.00 1.37 0.97 85 1017.0
20260506215212 5 288 4.8 11.3 0.00 1.37 0.97 87 1017.1
20260506214749 4 229 4.8 11.3 0.00 1.37 0.97 87 1017.0
20260506214229 4 234 6.4 11.3 0.00 1.37 0.97 89 1017.1
20260506213726 4 254 4.8 14.5 0.00 1.37 0.97 89 1017.2
20260506213222 3 261 11.3 14.5 0.03 1.37 0.97 89 1017.2
20260506212719 3 275 8.0 12.9 0.03 1.37 0.97 89 1017.3
20260506212216 3 286 6.4 12.9 0.03 1.37 0.97 90 1017.3
20260506211713 3 263 6.4 12.9 0.03 1.37 0.97 90 1017.3
20260506211250 3 317 6.4 12.9 0.03 1.37 0.97 90 1017.3
20260506210725 3 334 3.2 6.4 0.03 1.37 0.97 91 1017.5
20260506210226 3 312 1.6 6.4 0.03 1.37 0.97 91 1017.5
20260506205723 2 53 3.2 6.4 0.03 1.37 0.97 91 1017.4
20260506205220 2 44 4.8 6.4 0.05 1.37 0.97 90 1017.5
20260506204716 2 43 4.8 6.4 0.05 1.37 0.97 90 1017.7
20260506204213 3 46 3.2 6.4 0.05 1.37 0.97 90 1017.8
20260506203730 2 327 3.2 8.0 0.03 1.35 0.94 91 1017.9
20260506203227 2 355 3.2 9.7 0.03 1.35 0.94 91 1017.9
20260506202728 2 323 6.4 9.7 0.03 1.35 0.94 90 1018.0
20260506202245 2 360 6.4 9.7 0.03 1.35 0.94 90 1018.0
20260506201721 2 306 6.4 9.7 0.03 1.35 0.94 90 1018.0
20260506201218 2 286 8.0 12.9 0.03 1.35 0.94 90 1018.0
20260506200714 2 276 8.0 12.9 0.03 1.35 0.94 90 1018.0
20260506200211 2 285 11.3 12.9 0.03 1.35 0.94 89 1018.0
20260506195728 3 294 8.0 14.5 0.00 1.32 0.91 89 1018.0
20260506195225 3 280 6.4 12.9 0.00 1.32 0.91 88 1018.0
20260506194746 3 313 6.4 8.0 0.00 1.32 0.91 88 1018.0
20260506194222 3 281 3.2 6.4 0.00 1.32 0.91 88 1018.0
20260506193719 3 306 0.0 3.2 0.00 1.32 0.91 89 1017.9
20260506193216 3 336 0.0 1.6 0.00 1.32 0.91 90 1017.9
20260506192713 3 28 0.0 1.6 0.03 1.32 0.91 90 1018.0
20260506192230 2 28 0.0 3.2 0.03 1.32 0.91 90 1017.9
20260506191747 2 29 1.6 4.8 0.03 1.32 0.91 89 1017.9
20260506191223 3 18 1.6 4.8 0.03 1.32 0.91 90 1017.9
20260506190744 2 310 1.6 6.4 0.05 1.32 0.91 90 1018.0
20260506190240 2 313 4.8 6.4 0.05 1.32 0.91 89 1018.0
20260506185735 2 17 3.2 4.8 0.08 1.32 0.91 89 1017.9
20260506185211 3 25 3.2 4.8 0.10 1.32 0.91 89 1018.0
20260506184747 3 349 3.2 4.8 0.10 1.32 0.91 90 1017.9
20260506184223 3 41 0.0 1.6 0.13 1.32 0.91 92 1017.8
20260506183719 2 41 0.0 3.2 0.15 1.32 0.91 91 1017.7
20260506183236 2 41 1.6 3.2 0.15 1.32 0.91 91 1017.7
20260506182711 2 41 1.6 3.2 0.15 1.30 0.89 92 1017.8
20260506182229 2 41 0.0 1.6 0.18 1.30 0.89 92 1017.9
20260506181728 2 41 0.0 3.2 0.18 1.32 0.89 92 1018.0
20260506181225 2 41 1.6 3.2 0.18 1.30 0.86 92 1018.1
20260506180722 2 41 3.2 3.2 0.20 1.30 0.86 92 1018.1
20260506180219 2 41 1.6 3.2 0.23 1.30 0.86 93 1018.1
20260506175716 2 40 1.6 4.8 0.23 1.27 0.84 93 1018.1
20260506175213 2 42 3.2 4.8 0.25 1.24 0.81 93 1018.1
20260506174730 2 42 3.2 6.4 0.25 1.24 0.81 93 1018.0
20260506174210 2 35 4.8 6.4 0.28 1.22 0.79 93 1018.0
20260506173727 2 34 4.8 6.4 0.25 1.19 0.76 93 1018.0
20260506173223 2 28 4.8 6.4 0.30 1.19 0.76 93 1018.1
20260506172721 1 32 4.8 6.4 0.30 1.17 0.74 93 1018.0
20260506172218 1 22 4.8 8.0 0.30 1.14 0.71 93 1018.0
20260506171714 1 34 4.8 8.0 0.33 1.14 0.71 93 1018.0
20260506171211 1 28 4.8 8.0 0.33 1.09 0.69 93 1018.0
20260506170711 1 29 6.4 8.0 0.36 1.09 0.66 93 1018.0
20260506170228 1 23 6.4 8.0 0.36 1.07 0.64 93 1017.8
20260506165725 1 30 6.4 9.7 0.36 1.04 0.61 93 1017.8
20260506165222 1 25 8.0 12.9 0.33 0.99 0.56 93 1017.9
20260506164718 2 15 6.4 12.9 0.36 0.99 0.56 94 1017.9
20260506164215 2 335 8.0 14.5 0.33 0.94 0.51 94 1017.9
20260506163711 1 355 8.0 14.5 0.33 0.91 0.48 94 1017.7
20260506163212 1 24 6.4 12.9 0.33 0.89 0.46 94 1017.5
20260506162749 1 22 8.0 12.9 0.30 0.86 0.43 94 1017.5
20260506162245 1 23 8.0 9.7 0.28 0.84 0.41 94 1017.3
20260506161721 1 5 6.4 12.9 0.28 0.86 0.38 94 1017.3
20260506161218 1 23 6.4 12.9 0.23 0.81 0.33 94 1017.3
20260506160715 1 350 6.4 12.9 0.20 0.79 0.30 94 1017.2
20260506160212 1 5 8.0 12.9 0.18 0.76 0.28 94 1017.2
20260506155749 1 20 6.4 9.7 0.15 0.74 0.25 94 1017.2
20260506155224 1 25 6.4 12.9 0.13 0.71 0.23 94 1017.2
20260506154726 1 350 8.0 12.9 0.13 0.69 0.20 94 1017.2
20260506154223 1 24 6.4 12.9 0.10 0.66 0.18 94 1017.3
20260506153719 1 5 6.4 12.9 0.08 0.64 0.15 94 1017.2
20260506153237 1 9 6.4 9.7 0.05 0.61 0.13 93 1017.3
20260506152713 1 28 6.4 9.7 0.08 0.61 0.13 94 1017.1
20260506152230 1 21 4.8 8.0 0.08 0.61 0.13 94 1017.2
20260506151727 1 347 4.8 8.0 0.05 0.66 0.10 94 1017.3
20260506151223 1 18 4.8 9.7 0.05 0.66 0.10 94 1017.2
20260506150724 1 5 6.4 9.7 0.05 0.66 0.10 94 1017.2
20260506150220 1 360 6.4 9.7 0.05 0.66 0.10 94 1017.1
20260506145718 1 360 6.4 8.0 0.08 0.66 0.10 94 1017.1
20260506145215 1 17 4.8 9.7 0.08 0.66 0.10 94 1017.0
20260506144731 1 351 4.8 9.7 0.05 0.64 0.08 94 1017.0